Zurück zum Katalog

NOAA 16 DEB

AktivPO
NORAD 41344·DEBRIS·🇺🇸 United States

Gestartet Sep 21, 2000 von Vandenberg Space Force Base

Loading…

Nächste Überflüge (nächste 24 Stunden)

TLE

AktuellSource: Space-Track

Epoche: Sep 11, 2026, 22:36 UTC

1 41344U 00055HM  26254.94231699  .00003269  00000-0  89918-3 0  9996
2 41344  99.0514 147.6901 0021283 261.4199  98.4580 14.47560383553055

Verfolge NOAA 16 DEB in Echtzeit mit AllMySat

Download on the App Store